Time,TemperatureF,DewpointF,PressureIn,WindDirection,WindDirectionDegrees,WindSpeedMPH,WindSpeedGustMPH,Humidity,HourlyPrecipIn,Conditions,Clouds,dailyrainin,SoftwareType,DateUTC
2013-02-05 00:01:00,49.5,45.5,30.10,West,270,2.5,5.1,86,0.00,,,0.00,WUHU216HW,2013-02-05 08:01:00,
2013-02-05 00:06:00,49.5,45.5,30.10,WNW,293,3.8,5.1,86,0.00,,,0.00,WUHU216HW,2013-02-05 08:06:00,
2013-02-05 00:11:00,49.5,45.5,30.10,NW,315,3.4,4.0,86,0.00,,,0.00,WUHU216HW,2013-02-05 08:11:00,
2013-02-05 00:16:00,49.5,45.5,30.10,West,270,2.9,3.4,86,0.00,,,0.00,WUHU216HW,2013-02-05 08:16:00,
2013-02-05 00:21:00,49.5,45.5,30.11,West,270,3.6,3.6,86,0.00,,,0.00,WUHU216HW,2013-02-05 08:21:00,
2013-02-05 00:26:00,49.5,45.5,30.11,NW,315,2.0,4.0,86,0.00,,,0.00,WUHU216HW,2013-02-05 08:26:00,
2013-02-05 00:31:00,49.5,45.5,30.11,West,270,2.0,4.0,86,0.00,,,0.00,WUHU216HW,2013-02-05 08:31:00,
2013-02-05 00:36:00,49.5,45.5,30.10,North,0,1.3,3.4,86,0.00,,,0.00,WUHU216HW,2013-02-05 08:36:00,
2013-02-05 00:41:00,49.5,45.5,30.10,WNW,293,1.8,3.1,86,0.00,,,0.00,WUHU216HW,2013-02-05 08:41:00,
2013-02-05 00:46:00,49.5,45.1,30.10,West,270,1.8,2.7,85,0.00,,,0.00,WUHU216HW,2013-02-05 08:46:00,
2013-02-05 00:51:00,49.5,45.1,30.09,WNW,293,1.1,2.5,85,0.00,,,0.00,WUHU216HW,2013-02-05 08:51:00,
2013-02-05 00:56:00,49.5,45.1,30.09,NW,315,2.2,2.5,85,0.00,,,0.00,WUHU216HW,2013-02-05 08:56:00,
2013-02-05 01:01:00,49.3,44.9,30.09,NNW,338,1.8,2.5,85,0.00,,,0.00,WUHU216HW,2013-02-05 09:01:00,
2013-02-05 01:06:00,49.3,44.9,30.09,NW,315,1.1,2.7,85,0.00,,,0.00,WUHU216HW,2013-02-05 09:06:00,
2013-02-05 01:11:00,49.5,45.1,30.09,NW,315,2.0,2.7,85,0.00,,,0.00,WUHU216HW,2013-02-05 09:11:00,
2013-02-05 01:16:00,49.3,44.9,30.09,West,270,1.6,2.7,85,0.00,,,0.00,WUHU216HW,2013-02-05 09:16:00,
2013-02-05 01:21:00,49.3,44.9,30.09,West,270,2.0,2.7,85,0.00,,,0.00,WUHU216HW,2013-02-05 09:21:00,
2013-02-05 01:26:00,49.3,44.9,30.09,West,270,0.4,2.0,85,0.00,,,0.00,WUHU216HW,2013-02-05 09:26:00,
2013-02-05 01:31:00,49.3,44.9,30.09,West,270,1.3,1.8,85,0.00,,,0.00,WUHU216HW,2013-02-05 09:31:00,
2013-02-05 01:36:00,49.3,44.9,30.09,WSW,248,1.3,1.3,85,0.00,,,0.00,WUHU216HW,2013-02-05 09:36:00,
2013-02-05 01:41:00,49.5,45.1,30.09,NW,315,1.8,1.8,85,0.00,,,0.00,WUHU216HW,2013-02-05 09:41:00,
2013-02-05 01:46:00,49.3,44.9,30.09,West,270,0.2,1.8,85,0.00,,,0.00,WUHU216HW,2013-02-05 09:46:00,
2013-02-05 01:51:00,49.3,44.9,30.09,West,270,0.4,1.8,85,0.00,,,0.00,WUHU216HW,2013-02-05 09:51:00,
2013-02-05 01:56:00,49.3,44.7,30.09,West,270,1.3,1.8,84,0.00,,,0.00,WUHU216HW,2013-02-05 09:56:00,
2013-02-05 02:01:00,49.3,44.7,30.09,West,270,3.1,3.1,84,0.00,,,0.00,WUHU216HW,2013-02-05 10:01:00,
2013-02-05 02:06:00,49.3,44.7,30.09,West,270,3.4,4.0,84,0.00,,,0.00,WUHU216HW,2013-02-05 10:06:00,
2013-02-05 02:11:00,49.3,44.7,30.08,West,270,1.1,4.0,84,0.00,,,0.00,WUHU216HW,2013-02-05 10:11:00,
2013-02-05 02:16:00,49.3,44.7,30.09,West,270,3.1,3.6,84,0.00,,,0.00,WUHU216HW,2013-02-05 10:16:00,
2013-02-05 02:21:00,49.3,44.7,30.09,WSW,248,1.8,3.1,84,0.00,,,0.00,WUHU216HW,2013-02-05 10:21:00,
2013-02-05 02:26:00,49.3,44.7,30.08,West,270,1.6,2.9,84,0.00,,,0.00,WUHU216HW,2013-02-05 10:26:00,
2013-02-05 02:31:00,49.3,44.7,30.09,WNW,293,1.3,2.9,84,0.00,,,0.00,WUHU216HW,2013-02-05 10:31:00,
2013-02-05 02:36:00,49.3,44.7,30.09,NW,315,2.2,3.4,84,0.00,,,0.00,WUHU216HW,2013-02-05 10:36:00,
2013-02-05 02:41:00,49.3,44.7,30.09,West,270,3.8,3.8,84,0.00,,,0.00,WUHU216HW,2013-02-05 10:41:00,
2013-02-05 02:46:00,49.3,44.7,30.08,SW,225,1.8,3.8,84,0.00,,,0.00,WUHU216HW,2013-02-05 10:46:00,
2013-02-05 02:51:00,49.3,44.7,30.08,WSW,248,1.6,3.4,84,0.00,,,0.00,WUHU216HW,2013-02-05 10:51:00,
2013-02-05 02:56:00,49.3,44.7,30.08,WNW,293,3.4,3.8,84,0.00,,,0.00,WUHU216HW,2013-02-05 10:56:00,
2013-02-05 03:01:00,49.3,44.7,30.08,WNW,293,4.0,4.0,84,0.00,,,0.00,WUHU216HW,2013-02-05 11:01:00,
2013-02-05 03:06:00,49.3,44.7,30.08,WSW,248,1.6,4.0,84,0.00,,,0.00,WUHU216HW,2013-02-05 11:06:00,
2013-02-05 03:11:00,49.3,44.7,30.08,West,270,1.6,3.1,84,0.00,,,0.00,WUHU216HW,2013-02-05 11:11:00,
2013-02-05 03:16:00,49.3,44.3,30.08,WSW,248,1.1,1.8,83,0.00,,,0.00,WUHU216HW,2013-02-05 11:16:00,
2013-02-05 03:21:00,49.3,44.3,30.08,SW,225,2.9,2.9,83,0.00,,,0.00,WUHU216HW,2013-02-05 11:21:00,
2013-02-05 03:26:00,49.3,44.7,30.08,WSW,248,0.4,3.8,84,0.00,,,0.00,WUHU216HW,2013-02-05 11:26:00,
2013-02-05 03:31:00,49.3,44.3,30.08,WSW,248,3.1,3.8,83,0.00,,,0.00,WUHU216HW,2013-02-05 11:31:00,
2013-02-05 03:36:00,49.3,44.7,30.08,WSW,248,1.6,3.1,84,0.00,,,0.00,WUHU216HW,2013-02-05 11:36:00,
2013-02-05 03:41:00,49.3,44.3,30.08,WSW,248,2.0,3.4,83,0.00,,,0.00,WUHU216HW,2013-02-05 11:41:00,
2013-02-05 03:46:00,49.3,44.3,30.08,NW,315,1.3,3.4,83,0.00,,,0.00,WUHU216HW,2013-02-05 11:46:00,
2013-02-05 03:51:00,49.3,44.3,30.08,WNW,293,1.6,3.4,83,0.00,,,0.00,WUHU216HW,2013-02-05 11:51:00,
2013-02-05 03:56:00,49.3,44.3,30.08,WNW,293,0.7,3.4,83,0.00,,,0.00,WUHU216HW,2013-02-05 11:56:00,
2013-02-05 04:01:00,49.3,44.3,30.08,WSW,248,2.2,2.5,83,0.00,,,0.00,WUHU216HW,2013-02-05 12:01:00,
2013-02-05 04:06:00,49.3,44.3,30.08,WSW,248,1.1,2.5,83,0.00,,,0.00,WUHU216HW,2013-02-05 12:06:00,
2013-02-05 04:11:00,49.3,44.3,30.08,SW,225,1.8,2.2,83,0.00,,,0.00,WUHU216HW,2013-02-05 12:11:00,
2013-02-05 04:16:00,49.3,44.7,30.07,WSW,248,0.9,2.0,84,0.00,,,0.00,WUHU216HW,2013-02-05 12:16:00,
2013-02-05 04:21:00,49.3,44.7,30.07,WNW,293,0.4,1.8,84,0.00,,,0.00,WUHU216HW,2013-02-05 12:21:00,
2013-02-05 04:26:00,49.3,44.7,30.08,West,270,1.8,1.8,84,0.00,,,0.00,WUHU216HW,2013-02-05 12:26:00,
2013-02-05 04:31:00,49.3,44.3,30.08,West,270,1.8,2.0,83,0.00,,,0.00,WUHU216HW,2013-02-05 12:31:00,
2013-02-05 04:36:00,49.3,44.3,30.08,West,270,0.7,2.0,83,0.00,,,0.00,WUHU216HW,2013-02-05 12:36:00,
2013-02-05 04:41:00,49.3,44.3,30.08,West,270,1.1,1.8,83,0.00,,,0.00,WUHU216HW,2013-02-05 12:41:00,
2013-02-05 04:46:00,49.3,44.3,30.07,West,270,0.0,2.7,83,0.00,,,0.00,WUHU216HW,2013-02-05 12:46:00,
2013-02-05 04:51:00,49.3,44.3,30.07,WSW,248,1.6,2.7,83,0.00,,,0.00,WUHU216HW,2013-02-05 12:51:00,
2013-02-05 04:56:00,49.3,44.3,30.07,WSW,248,2.0,4.0,83,0.00,,,0.00,WUHU216HW,2013-02-05 12:56:00,
2013-02-05 05:01:00,49.3,44.3,30.07,West,270,3.1,4.0,83,0.00,,,0.00,WUHU216HW,2013-02-05 13:01:00,
2013-02-05 05:06:00,49.3,44.3,30.07,West,270,1.6,4.0,83,0.00,,,0.00,WUHU216HW,2013-02-05 13:06:00,
2013-02-05 05:11:00,49.1,44.1,30.06,West,270,2.5,3.1,83,0.00,,,0.00,WUHU216HW,2013-02-05 13:11:00,
2013-02-05 05:16:00,49.1,44.1,30.07,West,270,0.9,3.1,83,0.00,,,0.00,WUHU216HW,2013-02-05 13:16:00,
2013-02-05 05:21:00,49.1,44.1,30.07,West,270,2.0,2.7,83,0.00,,,0.00,WUHU216HW,2013-02-05 13:21:00,
2013-02-05 05:26:00,49.1,44.1,30.06,WSW,248,1.3,2.7,83,0.00,,,0.00,WUHU216HW,2013-02-05 13:26:00,
2013-02-05 05:31:00,49.1,44.1,30.06,WSW,248,0.9,3.1,83,0.00,,,0.00,WUHU216HW,2013-02-05 13:31:00,
2013-02-05 05:36:00,49.3,44.3,30.06,SW,225,0.2,3.1,83,0.00,,,0.00,WUHU216HW,2013-02-05 13:36:00,
2013-02-05 05:41:00,49.3,44.3,30.06,WSW,248,0.9,1.6,83,0.00,,,0.00,WUHU216HW,2013-02-05 13:41:00,
2013-02-05 05:46:00,49.3,44.0,30.06,West,270,1.1,1.3,82,0.00,,,0.00,WUHU216HW,2013-02-05 13:46:00,
2013-02-05 05:51:00,49.3,44.0,30.06,WNW,293,1.1,1.8,82,0.00,,,0.00,WUHU216HW,2013-02-05 13:51:00,
2013-02-05 05:56:00,49.3,44.0,30.06,West,270,1.8,2.9,82,0.00,,,0.00,WUHU216HW,2013-02-05 13:56:00,
2013-02-05 06:01:00,49.3,44.0,30.06,WSW,248,2.2,2.9,82,0.00,,,0.00,WUHU216HW,2013-02-05 14:01:00,
2013-02-05 06:06:00,49.3,44.0,30.06,SW,225,1.8,2.9,82,0.00,,,0.00,WUHU216HW,2013-02-05 14:06:00,
2013-02-05 06:11:00,49.3,44.0,30.06,West,270,3.4,3.4,82,0.00,,,0.00,WUHU216HW,2013-02-05 14:11:00,
2013-02-05 06:16:00,49.3,44.0,30.06,NW,315,4.5,4.5,82,0.00,,,0.00,WUHU216HW,2013-02-05 14:16:00,
2013-02-05 06:21:00,49.1,43.8,30.06,West,270,3.4,4.5,82,0.00,,,0.00,WUHU216HW,2013-02-05 14:21:00,
2013-02-05 06:26:00,49.1,43.8,30.07,West,270,1.1,4.5,82,0.00,,,0.00,WUHU216HW,2013-02-05 14:26:00,
2013-02-05 06:31:00,49.1,43.8,30.07,SW,225,2.0,3.4,82,0.00,,,0.00,WUHU216HW,2013-02-05 14:31:00,
2013-02-05 06:36:00,49.1,43.8,30.07,WSW,248,1.1,3.8,82,0.00,,,0.00,WUHU216HW,2013-02-05 14:36:00,
2013-02-05 06:41:00,49.1,43.8,30.07,WSW,248,1.1,3.8,82,0.00,,,0.00,WUHU216HW,2013-02-05 14:41:00,
2013-02-05 06:46:00,49.1,43.8,30.07,West,270,2.5,2.5,82,0.00,,,0.00,WUHU216HW,2013-02-05 14:46:00,
2013-02-05 06:51:00,49.1,43.8,30.08,WNW,293,2.9,3.4,82,0.00,,,0.00,WUHU216HW,2013-02-05 14:51:00,
2013-02-05 06:56:00,49.1,43.8,30.08,NW,315,1.8,3.4,82,0.00,,,0.00,WUHU216HW,2013-02-05 14:56:00,
2013-02-05 07:01:00,49.1,43.5,30.08,WNW,293,3.8,5.4,81,0.00,,,0.00,WUHU216HW,2013-02-05 15:01:00,
2013-02-05 07:06:00,49.0,43.4,30.09,WNW,293,1.3,5.4,81,0.00,,,0.00,WUHU216HW,2013-02-05 15:06:00,
2013-02-05 07:11:00,49.0,43.4,30.09,West,270,2.9,4.3,81,0.00,,,0.00,WUHU216HW,2013-02-05 15:11:00,
2013-02-05 07:16:00,49.0,43.4,30.09,SSW,203,2.9,4.3,81,0.00,,,0.00,WUHU216HW,2013-02-05 15:16:00,
2013-02-05 07:21:00,49.0,43.4,30.10,SW,225,2.7,3.4,81,0.00,,,0.00,WUHU216HW,2013-02-05 15:21:00,
2013-02-05 07:26:00,49.1,43.5,30.09,WSW,248,1.3,2.9,81,0.00,,,0.00,WUHU216HW,2013-02-05 15:26:00,
2013-02-05 07:31:00,49.1,43.5,30.09,West,270,2.5,4.0,81,0.00,,,0.00,WUHU216HW,2013-02-05 15:31:00,
2013-02-05 07:36:00,49.1,43.5,30.10,SW,225,0.9,4.0,81,0.00,,,0.00,WUHU216HW,2013-02-05 15:36:00,
2013-02-05 07:41:00,49.1,43.5,30.09,SW,225,3.6,3.8,81,0.00,,,0.00,WUHU216HW,2013-02-05 15:41:00,
2013-02-05 07:46:00,49.1,43.5,30.10,SW,225,4.5,4.5,81,0.00,,,0.00,WUHU216HW,2013-02-05 15:46:00,
2013-02-05 07:51:00,49.1,43.5,30.10,SW,225,3.4,4.5,81,0.00,,,0.00,WUHU216HW,2013-02-05 15:51:00,
2013-02-05 07:56:00,49.1,43.5,30.10,WSW,248,1.8,3.4,81,0.00,,,0.00,WUHU216HW,2013-02-05 15:56:00,
2013-02-05 08:01:00,49.3,43.7,30.10,WSW,248,0.7,2.5,81,0.00,,,0.00,WUHU216HW,2013-02-05 16:01:00,
2013-02-05 08:06:00,49.3,43.7,30.11,WSW,248,1.8,1.8,81,0.00,,,0.00,WUHU216HW,2013-02-05 16:06:00,
2013-02-05 08:11:00,49.3,43.7,30.11,SW,225,3.6,3.8,81,0.00,,,0.00,WUHU216HW,2013-02-05 16:11:00,
2013-02-05 08:16:00,49.3,43.7,30.11,WSW,248,4.0,6.3,81,0.00,,,0.00,WUHU216HW,2013-02-05 16:16:00,
2013-02-05 08:21:00,49.3,43.7,30.11,SW,225,2.7,6.3,81,0.00,,,0.00,WUHU216HW,2013-02-05 16:21:00,
2013-02-05 08:26:00,49.3,43.4,30.11,WSW,248,2.2,4.0,80,0.00,,,0.00,WUHU216HW,2013-02-05 16:26:00,
2013-02-05 08:31:00,49.3,43.4,30.11,West,270,2.9,4.0,80,0.00,,,0.00,WUHU216HW,2013-02-05 16:31:00,
2013-02-05 08:36:00,49.3,43.4,30.11,WSW,248,4.0,4.0,80,0.00,,,0.00,WUHU216HW,2013-02-05 16:36:00,
2013-02-05 08:41:00,49.5,43.6,30.11,WSW,248,2.5,4.0,80,0.00,,,0.00,WUHU216HW,2013-02-05 16:41:00,
2013-02-05 08:46:00,49.5,43.2,30.12,West,270,4.0,5.8,79,0.00,,,0.00,WUHU216HW,2013-02-05 16:46:00,
2013-02-05 08:51:00,49.5,43.2,30.12,SSW,203,3.6,5.8,79,0.00,,,0.00,WUHU216HW,2013-02-05 16:51:00,
2013-02-05 08:56:00,49.7,43.4,30.12,WSW,248,2.9,4.0,79,0.00,,,0.00,WUHU216HW,2013-02-05 16:56:00,
2013-02-05 09:01:00,49.7,43.4,30.12,WSW,248,4.3,4.3,79,0.00,,,0.00,WUHU216HW,2013-02-05 17:01:00,
2013-02-05 09:06:00,49.7,43.4,30.11,WSW,248,3.6,4.3,79,0.00,,,0.00,WUHU216HW,2013-02-05 17:06:00,
2013-02-05 09:11:00,49.7,43.4,30.11,West,270,3.4,4.0,79,0.00,,,0.00,WUHU216HW,2013-02-05 17:11:00,
2013-02-05 09:16:00,49.9,43.6,30.12,SW,225,2.7,4.0,79,0.00,,,0.00,WUHU216HW,2013-02-05 17:16:00,
2013-02-05 09:21:00,49.9,43.2,30.11,WSW,248,2.5,3.4,78,0.00,,,0.00,WUHU216HW,2013-02-05 17:21:00,
2013-02-05 09:26:00,50.0,43.4,30.11,WSW,248,2.9,4.7,78,0.00,,,0.00,WUHU216HW,2013-02-05 17:26:00,
2013-02-05 09:31:00,50.0,43.4,30.11,SSW,203,2.5,4.7,78,0.00,,,0.00,WUHU216HW,2013-02-05 17:31:00,
2013-02-05 09:36:00,50.0,43.4,30.11,SSW,203,1.3,3.1,78,0.00,,,0.00,WUHU216HW,2013-02-05 17:36:00,
2013-02-05 09:41:00,50.2,43.6,30.11,SSW,203,2.0,4.3,78,0.00,,,0.00,WUHU216HW,2013-02-05 17:41:00,
2013-02-05 09:46:00,50.4,43.7,30.11,SW,225,1.8,4.3,78,0.00,,,0.00,WUHU216HW,2013-02-05 17:46:00,
2013-02-05 09:51:00,50.4,43.7,30.11,SW,225,3.1,3.1,78,0.00,,,0.00,WUHU216HW,2013-02-05 17:51:00,
2013-02-05 09:56:00,50.6,43.9,30.12,SW,225,3.6,3.6,78,0.00,,,0.00,WUHU216HW,2013-02-05 17:56:00,
2013-02-05 10:01:00,50.8,44.1,30.11,SW,225,4.0,4.0,78,0.00,,,0.00,WUHU216HW,2013-02-05 18:01:00,
2013-02-05 10:06:00,50.8,44.1,30.11,SSW,203,2.5,4.0,78,0.00,,,0.00,WUHU216HW,2013-02-05 18:06:00,
2013-02-05 10:11:00,50.9,44.3,30.11,SW,225,2.5,4.0,78,0.00,,,0.00,WUHU216HW,2013-02-05 18:11:00,
2013-02-05 10:16:00,51.1,44.5,30.11,West,270,1.1,2.5,78,0.00,,,0.00,WUHU216HW,2013-02-05 18:16:00,
2013-02-05 10:21:00,51.3,44.6,30.12,SSW,203,4.3,4.5,78,0.00,,,0.00,WUHU216HW,2013-02-05 18:21:00,
2013-02-05 10:26:00,51.5,44.8,30.11,West,270,1.6,6.0,78,0.00,,,0.00,WUHU216HW,2013-02-05 18:26:00,
2013-02-05 10:31:00,51.5,44.8,30.12,WSW,248,4.5,6.0,78,0.00,,,0.00,WUHU216HW,2013-02-05 18:31:00,
2013-02-05 10:36:00,51.7,45.0,30.12,SW,225,0.9,4.5,78,0.00,,,0.00,WUHU216HW,2013-02-05 18:36:00,
2013-02-05 10:41:00,51.8,44.9,30.12,SW,225,4.5,4.5,77,0.00,,,0.00,WUHU216HW,2013-02-05 18:41:00,
2013-02-05 10:46:00,52.0,45.1,30.12,WSW,248,3.1,4.7,77,0.00,,,0.00,WUHU216HW,2013-02-05 18:46:00,
2013-02-05 10:51:00,52.0,45.1,30.12,WSW,248,0.4,5.8,77,0.00,,,0.00,WUHU216HW,2013-02-05 18:51:00,
2013-02-05 10:56:00,52.2,45.2,30.11,SW,225,2.9,5.8,77,0.00,,,0.00,WUHU216HW,2013-02-05 18:56:00,
2013-02-05 11:01:00,52.2,44.9,30.12,WSW,248,1.1,4.3,76,0.00,,,0.00,WUHU216HW,2013-02-05 19:01:00,
2013-02-05 11:06:00,52.2,45.2,30.11,SE,135,1.6,4.3,77,0.00,,,0.00,WUHU216HW,2013-02-05 19:06:00,
2013-02-05 11:11:00,52.4,45.4,30.11,SW,225,2.0,2.0,77,0.00,,,0.00,WUHU216HW,2013-02-05 19:11:00,
2013-02-05 11:16:00,52.7,45.7,30.11,West,270,2.0,3.6,77,0.00,,,0.00,WUHU216HW,2013-02-05 19:16:00,
2013-02-05 11:21:00,52.7,45.7,30.11,South,180,1.3,3.6,77,0.00,,,0.00,WUHU216HW,2013-02-05 19:21:00,
2013-02-05 11:26:00,52.9,45.9,30.11,SW,225,2.2,3.6,77,0.00,,,0.00,WUHU216HW,2013-02-05 19:26:00,
2013-02-05 11:31:00,52.9,45.9,30.11,SSW,203,0.7,3.6,77,0.00,,,0.00,WUHU216HW,2013-02-05 19:31:00,
2013-02-05 11:36:00,53.3,46.3,30.11,SSE,158,1.1,3.6,77,0.00,,,0.00,WUHU216HW,2013-02-05 19:36:00,
2013-02-05 11:41:00,53.3,45.9,30.11,WSW,248,1.8,3.6,76,0.00,,,0.00,WUHU216HW,2013-02-05 19:41:00,
2013-02-05 11:46:00,53.5,46.1,30.11,WSW,248,2.2,2.9,76,0.00,,,0.00,WUHU216HW,2013-02-05 19:46:00,
2013-02-05 11:51:00,53.5,46.1,30.11,SW,225,2.2,2.9,76,0.00,,,0.00,WUHU216HW,2013-02-05 19:51:00,
2013-02-05 11:56:00,53.5,46.1,30.10,SSW,203,2.2,2.5,76,0.00,,,0.00,WUHU216HW,2013-02-05 19:56:00,
2013-02-05 12:01:00,53.6,46.3,30.10,WSW,248,3.4,3.4,76,0.00,,,0.00,WUHU216HW,2013-02-05 20:01:00,
2013-02-05 12:06:00,53.6,46.3,30.10,WSW,248,2.9,4.3,76,0.00,,,0.00,WUHU216HW,2013-02-05 20:06:00,
2013-02-05 12:11:00,53.6,46.3,30.10,WSW,248,0.7,4.3,76,0.00,,,0.00,WUHU216HW,2013-02-05 20:11:00,
2013-02-05 12:16:00,53.6,46.3,30.10,WSW,248,3.6,4.3,76,0.00,,,0.00,WUHU216HW,2013-02-05 20:16:00,
2013-02-05 12:21:00,53.6,46.3,30.09,SW,225,4.0,4.0,76,0.00,,,0.00,WUHU216HW,2013-02-05 20:21:00,
2013-02-05 12:27:00,53.6,46.3,30.09,SW,225,2.5,4.5,76,0.00,,,0.00,WUHU216HW,2013-02-05 20:27:00,
2013-02-05 12:32:00,53.6,46.3,30.09,WSW,248,1.8,4.5,76,0.00,,,0.00,WUHU216HW,2013-02-05 20:32:00,
2013-02-05 12:37:00,53.8,46.5,30.09,WSW,248,3.6,3.6,76,0.00,,,0.00,WUHU216HW,2013-02-05 20:37:00,
2013-02-05 12:42:00,54.0,46.3,30.09,WSW,248,6.3,6.3,75,0.00,,,0.00,WUHU216HW,2013-02-05 20:42:00,
2013-02-05 12:47:00,54.2,46.5,30.09,West,270,4.3,6.3,75,0.00,,,0.00,WUHU216HW,2013-02-05 20:47:00,
2013-02-05 12:52:00,54.0,46.3,30.09,West,270,6.3,6.3,75,0.00,,,0.00,WUHU216HW,2013-02-05 20:52:00,
2013-02-05 12:57:00,54.2,46.5,30.09,WNW,293,4.5,6.3,75,0.00,,,0.00,WUHU216HW,2013-02-05 20:57:00,
2013-02-05 13:02:00,54.2,46.5,30.08,SW,225,3.8,6.3,75,0.00,,,0.00,WUHU216HW,2013-02-05 21:02:00,
2013-02-05 13:07:00,54.2,46.5,30.08,WSW,248,4.0,6.5,75,0.00,,,0.00,WUHU216HW,2013-02-05 21:07:00,
2013-02-05 13:12:00,54.2,46.5,30.08,WSW,248,4.3,6.5,75,0.00,,,0.00,WUHU216HW,2013-02-05 21:12:00,
2013-02-05 13:17:00,54.2,46.5,30.08,South,180,2.7,4.3,75,0.00,,,0.00,WUHU216HW,2013-02-05 21:17:00,
2013-02-05 13:22:00,54.4,46.6,30.08,West,270,4.9,6.3,75,0.00,,,0.00,WUHU216HW,2013-02-05 21:22:00,
2013-02-05 13:27:00,54.4,46.6,30.08,West,270,2.7,6.3,75,0.00,,,0.00,WUHU216HW,2013-02-05 21:27:00,
2013-02-05 13:32:00,54.4,46.6,30.08,NNW,338,2.7,4.5,75,0.00,,,0.00,WUHU216HW,2013-02-05 21:32:00,
2013-02-05 13:37:00,54.4,46.6,30.08,WNW,293,2.9,4.7,75,0.00,,,0.00,WUHU216HW,2013-02-05 21:37:00,
2013-02-05 13:42:00,54.4,46.6,30.08,West,270,3.1,9.2,75,0.00,,,0.00,WUHU216HW,2013-02-05 21:42:00,
2013-02-05 13:47:00,54.4,46.6,30.08,WNW,293,4.0,9.2,75,0.00,,,0.00,WUHU216HW,2013-02-05 21:47:00,
2013-02-05 13:52:00,54.4,46.6,30.08,SW,225,5.8,6.7,75,0.00,,,0.00,WUHU216HW,2013-02-05 21:52:00,
2013-02-05 13:57:00,54.7,47.6,30.08,SW,225,5.8,5.8,77,0.00,,,0.00,WUHU216HW,2013-02-05 21:57:00,
2013-02-05 14:02:00,54.9,47.4,30.07,WNW,293,3.4,5.8,76,0.00,,,0.00,WUHU216HW,2013-02-05 22:02:00,
2013-02-05 14:07:00,55.6,48.2,30.07,NW,315,3.4,5.1,76,0.00,,,0.00,WUHU216HW,2013-02-05 22:07:00,
2013-02-05 14:12:00,56.2,48.3,30.08,WNW,293,4.7,5.1,75,0.00,,,0.00,WUHU216HW,2013-02-05 22:12:00,
2013-02-05 14:17:00,56.5,48.6,30.08,WSW,248,4.7,4.7,75,0.00,,,0.00,WUHU216HW,2013-02-05 22:17:00,
2013-02-05 14:22:00,56.7,48.1,30.08,West,270,5.4,5.4,73,0.00,,,0.00,WUHU216HW,2013-02-05 22:22:00,
2013-02-05 14:27:00,56.5,48.0,30.07,WSW,248,8.9,8.9,73,0.00,,,0.00,WUHU216HW,2013-02-05 22:27:00,
2013-02-05 14:32:00,56.5,48.0,30.07,WSW,248,3.8,8.9,73,0.00,,,0.00,WUHU216HW,2013-02-05 22:32:00,
2013-02-05 14:37:00,56.7,48.1,30.07,WSW,248,5.4,6.5,73,0.00,,,0.00,WUHU216HW,2013-02-05 22:37:00,
2013-02-05 14:42:00,56.7,48.1,30.07,NW,315,5.6,6.5,73,0.00,,,0.00,WUHU216HW,2013-02-05 22:42:00,
2013-02-05 14:47:00,56.5,48.0,30.07,WNW,293,5.6,5.6,73,0.00,,,0.00,WUHU216HW,2013-02-05 22:47:00,
2013-02-05 14:52:00,56.3,47.8,30.07,WSW,248,4.7,6.0,73,0.00,,,0.00,WUHU216HW,2013-02-05 22:52:00,
2013-02-05 14:57:00,56.5,48.0,30.08,NW,315,4.7,6.0,73,0.00,,,0.00,WUHU216HW,2013-02-05 22:57:00,
2013-02-05 15:02:00,56.5,48.0,30.08,WNW,293,10.3,10.3,73,0.00,,,0.00,WUHU216HW,2013-02-05 23:02:00,
2013-02-05 15:07:00,56.5,48.0,30.08,WSW,248,6.5,10.3,73,0.00,,,0.00,WUHU216HW,2013-02-05 23:07:00,
2013-02-05 15:12:00,56.7,48.1,30.08,West,270,6.3,10.3,73,0.00,,,0.00,WUHU216HW,2013-02-05 23:12:00,
2013-02-05 15:17:00,56.7,48.1,30.08,WSW,248,4.7,8.5,73,0.00,,,0.00,WUHU216HW,2013-02-05 23:17:00,
2013-02-05 15:22:00,56.7,48.1,30.08,WNW,293,7.4,7.4,73,0.00,,,0.00,WUHU216HW,2013-02-05 23:22:00,
2013-02-05 15:27:00,56.7,48.1,30.08,West,270,9.2,9.2,73,0.00,,,0.00,WUHU216HW,2013-02-05 23:27:00,
2013-02-05 15:32:00,56.5,48.0,30.08,NNW,338,7.2,9.2,73,0.00,,,0.00,WUHU216HW,2013-02-05 23:32:00,
2013-02-05 15:37:00,56.5,48.0,30.08,WNW,293,3.4,9.2,73,0.00,,,0.00,WUHU216HW,2013-02-05 23:37:00,
2013-02-05 15:42:00,56.3,47.8,30.09,WSW,248,6.0,7.2,73,0.00,,,0.00,WUHU216HW,2013-02-05 23:42:00,
2013-02-05 15:47:00,56.3,48.2,30.08,SSE,158,2.2,7.2,74,0.00,,,0.00,WUHU216HW,2013-02-05 23:47:00,
2013-02-05 15:52:00,56.3,48.2,30.09,SW,225,4.7,7.2,74,0.00,,,0.00,WUHU216HW,2013-02-05 23:52:00,
2013-02-05 15:57:00,56.3,48.2,30.09,WNW,293,3.4,4.7,74,0.00,,,0.00,WUHU216HW,2013-02-05 23:57:00,
2013-02-05 16:02:00,56.5,48.2,30.09,West,270,1.8,4.7,74,0.00,,,0.00,WUHU216HW,2013-02-06 00:02:00,
2013-02-05 16:07:00,56.5,48.2,30.09,WSW,248,2.5,3.1,74,0.00,,,0.00,WUHU216HW,2013-02-06 00:07:00,
2013-02-05 16:12:00,56.3,48.2,30.09,WSW,248,2.7,2.7,74,0.00,,,0.00,WUHU216HW,2013-02-06 00:12:00,
2013-02-05 16:17:00,56.2,48.3,30.08,West,270,3.1,7.6,75,0.00,,,0.00,WUHU216HW,2013-02-06 00:17:00,
2013-02-05 16:22:00,56.2,48.3,30.09,West,270,5.1,7.6,75,0.00,,,0.00,WUHU216HW,2013-02-06 00:22:00,
2013-02-05 16:27:00,56.2,48.3,30.09,NW,315,4.5,6.3,75,0.00,,,0.00,WUHU216HW,2013-02-06 00:27:00,
2013-02-05 16:32:00,56.2,48.3,30.09,West,270,2.9,5.1,75,0.00,,,0.00,WUHU216HW,2013-02-06 00:32:00,
2013-02-05 16:37:00,56.2,48.6,30.09,NW,315,6.9,6.9,76,0.00,,,0.00,WUHU216HW,2013-02-06 00:37:00,
2013-02-05 16:42:00,55.8,48.3,30.09,WNW,293,2.9,6.9,76,0.00,,,0.00,WUHU216HW,2013-02-06 00:42:00,
2013-02-05 16:47:00,55.8,48.3,30.09,SW,225,2.7,4.3,76,0.00,,,0.00,WUHU216HW,2013-02-06 00:47:00,
2013-02-05 16:52:00,55.6,48.2,30.09,West,270,2.5,2.9,76,0.00,,,0.00,WUHU216HW,2013-02-06 00:52:00,
2013-02-05 16:57:00,55.6,48.2,30.09,WSW,248,2.2,4.3,76,0.00,,,0.00,WUHU216HW,2013-02-06 00:57:00,
2013-02-05 17:02:00,55.6,48.5,30.09,West,270,3.6,5.1,77,0.00,,,0.00,WUHU216HW,2013-02-06 01:02:00,
2013-02-05 17:07:00,55.4,48.3,30.09,West,270,5.6,6.0,77,0.00,,,0.00,WUHU216HW,2013-02-06 01:07:00,
2013-02-05 17:12:00,55.1,48.0,30.09,West,270,4.0,6.0,77,0.00,,,0.00,WUHU216HW,2013-02-06 01:12:00,
2013-02-05 17:17:00,55.1,48.3,30.09,West,270,2.0,5.1,78,0.00,,,0.00,WUHU216HW,2013-02-06 01:17:00,
2013-02-05 17:22:00,55.1,48.3,30.09,West,270,4.5,4.7,78,0.00,,,0.00,WUHU216HW,2013-02-06 01:22:00,
2013-02-05 17:27:00,54.9,48.2,30.09,SW,225,2.7,5.4,78,0.00,,,0.00,WUHU216HW,2013-02-06 01:27:00,
2013-02-05 17:32:00,54.9,48.2,30.09,SW,225,2.7,5.4,78,0.00,,,0.00,WUHU216HW,2013-02-06 01:32:00,
2013-02-05 17:37:00,55.1,48.3,30.09,SW,225,3.1,3.1,78,0.00,,,0.00,WUHU216HW,2013-02-06 01:37:00,
2013-02-05 17:42:00,55.1,48.3,30.10,West,270,3.4,3.8,78,0.00,,,0.00,WUHU216HW,2013-02-06 01:42:00,
2013-02-05 17:47:00,55.1,48.3,30.10,WSW,248,1.6,4.7,78,0.00,,,0.00,WUHU216HW,2013-02-06 01:47:00,
2013-02-05 17:52:00,54.9,48.2,30.10,WSW,248,1.8,4.7,78,0.00,,,0.00,WUHU216HW,2013-02-06 01:52:00,
2013-02-05 17:57:00,54.9,48.2,30.09,SW,225,1.8,3.4,78,0.00,,,0.00,WUHU216HW,2013-02-06 01:57:00,
2013-02-05 18:02:00,54.9,48.2,30.09,SW,225,3.4,3.4,78,0.00,,,0.00,WUHU216HW,2013-02-06 02:02:00,
2013-02-05 18:07:00,54.9,48.5,30.09,WSW,248,3.8,3.8,79,0.00,,,0.00,WUHU216HW,2013-02-06 02:07:00,
2013-02-05 18:12:00,54.9,48.5,30.10,West,270,3.1,3.8,79,0.00,,,0.00,WUHU216HW,2013-02-06 02:12:00,
2013-02-05 18:17:00,54.7,48.3,30.10,WSW,248,3.4,4.0,79,0.00,,,0.00,WUHU216HW,2013-02-06 02:17:00,
2013-02-05 18:22:00,54.7,48.3,30.10,West,270,1.8,4.5,79,0.00,,,0.00,WUHU216HW,2013-02-06 02:22:00,
2013-02-05 18:27:00,54.7,48.0,30.10,WSW,248,5.4,5.4,78,0.00,,,0.00,WUHU216HW,2013-02-06 02:27:00,
2013-02-05 18:32:00,54.5,47.8,30.10,SW,225,5.4,5.4,78,0.00,,,0.00,WUHU216HW,2013-02-06 02:32:00,
2013-02-05 18:37:00,54.5,48.2,30.10,WSW,248,3.6,5.4,79,0.00,,,0.00,WUHU216HW,2013-02-06 02:37:00,
2013-02-05 18:42:00,54.4,48.0,30.10,WNW,293,5.4,5.4,79,0.00,,,0.00,WUHU216HW,2013-02-06 02:42:00,
2013-02-05 18:47:00,54.4,48.0,30.11,West,270,5.1,6.3,79,0.00,,,0.00,WUHU216HW,2013-02-06 02:47:00,
2013-02-05 18:52:00,54.2,47.8,30.11,West,270,4.9,6.3,79,0.00,,,0.00,WUHU216HW,2013-02-06 02:52:00,
2013-02-05 18:57:00,54.2,48.2,30.11,SSW,203,1.1,4.9,80,0.00,,,0.00,WUHU216HW,2013-02-06 02:57:00,
2013-02-05 19:02:00,54.0,48.1,30.11,SW,225,3.1,4.9,80,0.00,,,0.00,WUHU216HW,2013-02-06 03:02:00,
2013-02-05 19:07:00,54.0,48.1,30.11,WSW,248,1.8,4.9,80,0.00,,,0.00,WUHU216HW,2013-02-06 03:07:00,
2013-02-05 19:12:00,54.0,48.1,30.10,WSW,248,1.3,3.1,80,0.00,,,0.00,WUHU216HW,2013-02-06 03:12:00,
2013-02-05 19:17:00,54.0,48.1,30.11,West,270,2.9,6.0,80,0.00,,,0.00,WUHU216HW,2013-02-06 03:17:00,
2013-02-05 19:22:00,54.0,48.3,30.11,WNW,293,2.9,6.3,81,0.00,,,0.00,WUHU216HW,2013-02-06 03:22:00,
2013-02-05 19:27:00,53.8,48.2,30.11,WNW,293,3.4,6.3,81,0.00,,,0.00,WUHU216HW,2013-02-06 03:27:00,
2013-02-05 19:32:00,53.8,48.2,30.11,WNW,293,1.8,5.1,81,0.00,,,0.00,WUHU216HW,2013-02-06 03:32:00,
2013-02-05 19:37:00,53.6,48.0,30.11,West,270,2.2,2.7,81,0.00,,,0.00,WUHU216HW,2013-02-06 03:37:00,
2013-02-05 19:42:00,53.6,48.3,30.11,WSW,248,0.0,3.4,82,0.00,,,0.00,WUHU216HW,2013-02-06 03:42:00,
2013-02-05 19:47:00,53.6,48.3,30.11,West,270,1.8,3.4,82,0.00,,,0.00,WUHU216HW,2013-02-06 03:47:00,
2013-02-05 19:52:00,53.6,48.3,30.11,NW,315,2.7,4.7,82,0.00,,,0.00,WUHU216HW,2013-02-06 03:52:00,
2013-02-05 19:57:00,53.5,48.2,30.11,West,270,1.8,4.7,82,0.00,,,0.00,WUHU216HW,2013-02-06 03:57:00,
2013-02-05 20:02:00,53.5,48.2,30.11,WSW,248,3.4,3.4,82,0.00,,,0.00,WUHU216HW,2013-02-06 04:02:00,
2013-02-05 20:07:00,53.5,48.2,30.11,WSW,248,3.4,6.3,82,0.00,,,0.00,WUHU216HW,2013-02-06 04:07:00,
2013-02-05 20:12:00,53.5,48.2,30.11,West,270,2.2,6.3,82,0.00,,,0.00,WUHU216HW,2013-02-06 04:12:00,
2013-02-05 20:17:00,53.3,48.0,30.11,WNW,293,4.0,4.0,82,0.00,,,0.00,WUHU216HW,2013-02-06 04:17:00,
2013-02-05 20:22:00,53.3,48.0,30.11,WSW,248,3.8,4.0,82,0.00,,,0.00,WUHU216HW,2013-02-06 04:22:00,
2013-02-05 20:27:00,53.3,48.2,30.11,SSW,203,4.0,5.1,83,0.00,,,0.00,WUHU216HW,2013-02-06 04:27:00,
2013-02-05 20:32:00,53.5,48.4,30.13,SW,225,1.8,5.1,83,0.00,,,0.00,WUHU216HW,2013-02-06 04:32:00,
2013-02-05 20:37:00,53.6,48.3,30.12,WSW,248,2.5,3.8,82,0.00,,,0.00,WUHU216HW,2013-02-06 04:37:00,
2013-02-05 20:42:00,53.6,48.3,30.13,West,270,2.9,4.7,82,0.00,,,0.00,WUHU216HW,2013-02-06 04:42:00,
2013-02-05 20:47:00,53.6,48.3,30.12,West,270,3.6,5.1,82,0.00,,,0.00,WUHU216HW,2013-02-06 04:47:00,
2013-02-05 20:52:00,53.6,48.3,30.13,WSW,248,4.0,5.4,82,0.00,,,0.00,WUHU216HW,2013-02-06 04:52:00,
2013-02-05 20:57:00,53.6,48.3,30.13,West,270,6.0,6.0,82,0.00,,,0.00,WUHU216HW,2013-02-06 04:57:00,
2013-02-05 21:02:00,53.6,48.0,30.13,WSW,248,4.3,6.0,81,0.00,,,0.00,WUHU216HW,2013-02-06 05:02:00,
2013-02-05 21:07:00,53.6,48.0,30.13,West,270,1.8,5.1,81,0.00,,,0.00,WUHU216HW,2013-02-06 05:07:00,
2013-02-05 21:12:00,53.6,48.0,30.13,West,270,2.7,4.9,81,0.00,,,0.00,WUHU216HW,2013-02-06 05:12:00,
2013-02-05 21:17:00,53.5,47.8,30.13,West,270,5.6,5.6,81,0.00,,,0.00,WUHU216HW,2013-02-06 05:17:00,
2013-02-05 21:22:00,53.3,47.3,30.13,West,270,5.1,5.8,80,0.00,,,0.00,WUHU216HW,2013-02-06 05:22:00,
2013-02-05 21:27:00,53.1,47.4,30.14,WNW,293,4.9,5.8,81,0.00,,,0.00,WUHU216HW,2013-02-06 05:27:00,
2013-02-05 21:32:00,53.1,47.4,30.14,WSW,248,1.8,5.4,81,0.00,,,0.00,WUHU216HW,2013-02-06 05:32:00,
2013-02-05 21:37:00,53.1,47.4,30.13,WSW,248,2.7,4.9,81,0.00,,,0.00,WUHU216HW,2013-02-06 05:37:00,
2013-02-05 21:42:00,53.1,47.4,30.14,WNW,293,1.1,4.3,81,0.00,,,0.00,WUHU216HW,2013-02-06 05:42:00,
2013-02-05 21:47:00,53.1,47.4,30.14,WSW,248,1.6,4.3,81,0.00,,,0.00,WUHU216HW,2013-02-06 05:47:00,
2013-02-05 21:52:00,53.3,47.6,30.14,WSW,248,1.8,2.5,81,0.00,,,0.00,WUHU216HW,2013-02-06 05:52:00,
2013-02-05 21:57:00,53.3,47.3,30.14,SW,225,1.1,2.9,80,0.00,,,0.00,WUHU216HW,2013-02-06 05:57:00,
2013-02-05 22:02:00,53.5,47.5,30.14,WSW,248,1.1,2.9,80,0.00,,,0.00,WUHU216HW,2013-02-06 06:02:00,
2013-02-05 22:07:00,53.5,47.5,30.14,WSW,248,0.7,2.0,80,0.00,,,0.00,WUHU216HW,2013-02-06 06:07:00,
2013-02-05 22:12:00,53.5,47.5,30.14,West,270,1.1,2.5,80,0.00,,,0.00,WUHU216HW,2013-02-06 06:12:00,
2013-02-05 22:17:00,53.5,47.5,30.15,WSW,248,1.1,2.5,80,0.00,,,0.00,WUHU216HW,2013-02-06 06:17:00,
2013-02-05 22:22:00,53.5,47.5,30.14,SW,225,2.5,2.5,80,0.00,,,0.00,WUHU216HW,2013-02-06 06:22:00,
2013-02-05 22:27:00,53.5,47.5,30.14,WSW,248,1.1,2.5,80,0.00,,,0.00,WUHU216HW,2013-02-06 06:27:00,
2013-02-05 22:32:00,53.5,47.5,30.15,SW,225,0.0,2.5,80,0.00,,,0.00,WUHU216HW,2013-02-06 06:32:00,
2013-02-05 22:38:00,53.5,47.5,30.14,SSW,203,0.4,1.1,80,0.00,,,0.00,WUHU216HW,2013-02-06 06:38:00,
2013-02-05 22:43:00,53.3,47.3,30.14,SSW,203,0.0,1.1,80,0.00,,,0.00,WUHU216HW,2013-02-06 06:43:00,
2013-02-05 22:48:00,53.3,47.3,30.14,North,0,0.0,0.7,80,0.00,,,0.00,WUHU216HW,2013-02-06 06:48:00,
2013-02-05 22:53:00,53.3,47.3,30.14,North,0,0.0,0.7,80,0.00,,,0.00,WUHU216HW,2013-02-06 06:53:00,
2013-02-05 22:58:00,53.1,46.8,30.14,North,0,0.0,0.0,79,0.00,,,0.00,WUHU216HW,2013-02-06 06:58:00,
2013-02-05 23:03:00,52.9,46.6,30.14,North,0,1.1,1.1,79,0.00,,,0.00,WUHU216HW,2013-02-06 07:03:00,
2013-02-05 23:08:00,52.6,46.3,30.14,North,0,0.0,1.1,79,0.00,,,0.00,WUHU216HW,2013-02-06 07:08:00,
2013-02-05 23:13:00,52.4,46.1,30.14,North,0,0.2,0.4,79,0.00,,,0.00,WUHU216HW,2013-02-06 07:13:00,
2013-02-05 23:18:00,52.2,45.9,30.14,NW,315,0.4,0.7,79,0.00,,,0.00,WUHU216HW,2013-02-06 07:18:00,
2013-02-05 23:23:00,51.8,45.5,30.14,SE,135,1.1,1.1,79,0.00,,,0.00,WUHU216HW,2013-02-06 07:23:00,
2013-02-05 23:28:00,51.7,45.4,30.14,ENE,68,1.8,1.8,79,0.00,,,0.00,WUHU216HW,2013-02-06 07:28:00,
2013-02-05 23:33:00,51.5,45.2,30.14,ENE,68,0.0,1.8,79,0.00,,,0.00,WUHU216HW,2013-02-06 07:33:00,
2013-02-05 23:38:00,51.3,45.0,30.14,ESE,113,1.6,1.6,79,0.00,,,0.00,WUHU216HW,2013-02-06 07:38:00,
2013-02-05 23:43:00,51.1,45.2,30.14,ESE,113,0.4,1.6,80,0.00,,,0.00,WUHU216HW,2013-02-06 07:43:00,
2013-02-05 23:48:00,51.1,45.2,30.14,ESE,113,0.0,0.7,80,0.00,,,0.00,WUHU216HW,2013-02-06 07:48:00,
2013-02-05 23:53:00,50.9,45.0,30.14,ESE,113,0.0,0.4,80,0.00,,,0.00,WUHU216HW,2013-02-06 07:53:00,
2013-02-05 23:58:00,50.8,44.8,30.14,ESE,113,0.0,0.0,80,0.00,,,0.00,WUHU216HW,2013-02-06 07:58:00,